Miles City, MT

3:04 AM MDT on August 31, 2016 (GMT -0600)
Wiley

Weather History for KMLS - March, 2014

Change the Weather History Date:

Sunday, March 30, 2014

  Actual Average Record
Temperature  
Mean Temperature 37 °F 40 °F  
Max Temperature 45 °F 52 °F 79 °F (1978)
Min Temperature 29 °F 28 °F 2 °F (1989)
Degree Days  
Heating Degree Days 28 25  
Month to date heating degree days 1009 917  
Since 1 July heating degree days 7048 6651  
Cooling Degree Days 0 0  
Month to date cooling degree days 0 0  
Year to date cooling degree days 0 0  
Moisture  
Dew Point 35 °F    
Average Humidity 85    
Maximum Humidity 100    
Minimum Humidity 70    
Precipitation  
Precipitation 0.60 in 0.03 in 1.20 in (2006)
Month to date precipitation 1.30 0.57  
Year to date precipitation 1.55 1.12  
Sea Level Pressure  
Sea Level Pressure 29.75 in    
Wind  
Wind Speed 13 mph (NNE)    
Max Wind Speed 30 mph    
Max Gust Speed 36 mph    
Visibility 5 miles    
Events Fog , Rain , Snow    
T = Trace of Precipitation, MM = Missing Value Source: NWS Daily Summary

Daily Weather History Graph

Daily Weather History Graph

Search for Another Location

Airport or City:

Trip Planner

Search our weather history database for the weather conditions in past years. The results will help you decide how hot, cold, wet, or windy it might be!

Date:

Astronomy

Mar. 30, 2014 Rise Set
Actual Time 6:46 AM MDT 7:29 PM MDT
Civil Twilight 6:16 AM MDT 8:00 PM MDT
Nautical Twilight 5:40 AM MDT 8:36 PM MDT
Astronomical Twilight 5:02 AM MDT 9:14 PM MDT
Moon 6:34 AM MDT (3/30) 7:47 PM MDT (3/30)
Length of Visible Light 13h 43m
Length of Day
12h 42m
Waning Crescent, 0% of the Moon is Illuminated
Mar 30
Waning Crescent
Mar 30
New
Apr 7
First Quarter
Apr 15
Full
Apr 22
Last Quarter

Hourly Weather History & Observations

Time (MDT) Temp. Windchill Dew Point Humidity Pressure Visibility Wind Dir Wind Speed Gust Speed Precip Events Conditions
12:53 AM 43.0 °F 38.8 °F 35.1 °F 74% 29.77 in 10.0 mi NW 6.9 mph - N/A   Mostly Cloudy
1:53 AM 43.0 °F 41.3 °F 35.1 °F 74% 29.77 in 10.0 mi West 3.5 mph - N/A   Mostly Cloudy
2:53 AM 42.1 °F 37.7 °F 35.1 °F 76% 29.75 in 10.0 mi NW 6.9 mph - N/A   Overcast
3:53 AM 41.0 °F 38.0 °F 35.1 °F 79% 29.77 in 10.0 mi West 4.6 mph - N/A   Overcast
4:53 AM 41.0 °F - 34.0 °F 76% 29.76 in 10.0 mi Calm Calm - N/A   Overcast
5:53 AM 41.0 °F 39.0 °F 34.0 °F 76% 29.77 in 10.0 mi South 3.5 mph - N/A   Scattered Clouds
6:53 AM 39.9 °F 36.7 °F 35.1 °F 83% 29.77 in 10.0 mi SSE 4.6 mph - N/A   Overcast
7:53 AM 39.9 °F - 35.1 °F 83% 29.77 in 10.0 mi Calm Calm - N/A   Overcast
8:53 AM 41.0 °F 38.0 °F 35.1 °F 79% 29.76 in 10.0 mi SSE 4.6 mph - N/A   Overcast
9:53 AM 44.1 °F - 36.0 °F 73% 29.75 in 10.0 mi Calm Calm - N/A   Overcast
10:53 AM 44.1 °F 39.0 °F 36.0 °F 73% 29.75 in 10.0 mi North 9.2 mph - N/A   Overcast
11:53 AM 45.0 °F 38.5 °F 36.0 °F 71% 29.76 in 10.0 mi NE 13.8 mph - N/A   Overcast
12:53 PM 45.0 °F 38.5 °F 35.1 °F 68% 29.74 in 10.0 mi NE 13.8 mph - N/A   Overcast
1:53 PM 44.1 °F 37.1 °F 36.0 °F 73% 29.72 in 10.0 mi NNE 15.0 mph - 0.00 in Rain Light Rain
2:28 PM 42.1 °F 34.2 °F 37.9 °F 85% 29.68 in 8.0 mi NNE 16.1 mph - 0.01 in Rain Light Rain
2:53 PM 41.0 °F 32.5 °F 39.0 °F 93% 29.71 in 6.0 mi NNE 17.3 mph - 0.03 in Rain Light Rain
3:11 PM 41.0 °F 32.5 °F 39.9 °F 96% 29.68 in 6.0 mi NNE 17.3 mph - 0.01 in Rain Light Rain
3:53 PM 41.0 °F 32.2 °F 39.0 °F 93% 29.71 in 2.5 mi NE 18.4 mph - 0.07 in Rain Rain
4:00 PM 39.9 °F 30.2 °F 39.0 °F 97% 29.68 in 3.0 mi NE 20.7 mph 25.3 mph 0.02 in Rain Rain
4:07 PM 39.9 °F 30.5 °F 37.9 °F 93% 29.67 in 3.0 mi NNE 19.6 mph 28.8 mph 0.03 in Rain Rain
4:24 PM 39.9 °F 30.2 °F 37.9 °F 93% 29.67 in 3.0 mi NNE 20.7 mph - 0.06 in Rain Rain
4:31 PM 39.9 °F 31.1 °F 37.9 °F 93% 29.67 in 4.0 mi NE 17.3 mph 25.3 mph 0.07 in Rain Rain
4:53 PM 39.0 °F 28.3 °F 36.0 °F 89% 29.72 in 5.0 mi NNE 24.2 mph - 0.10 in Rain Light Rain
5:22 PM 37.9 °F 27.3 °F 36.0 °F 93% 29.69 in 4.0 mi NNE 21.9 mph 27.6 mph 0.05 in Rain Rain
5:29 PM 37.9 °F 26.6 °F 36.0 °F 93% 29.69 in 4.0 mi NE 25.3 mph 32.2 mph 0.06 in Rain Rain
5:53 PM 37.0 °F 25.6 °F 35.1 °F 93% 29.74 in 3.0 mi NE 24.2 mph 32.2 mph 0.11 in Rain Rain
6:09 PM 36.0 °F 24.2 °F 35.1 °F 97% 29.70 in 4.0 mi NE 24.2 mph 29.9 mph 0.03 in Rain Rain
6:34 PM 34.0 °F 22.7 °F 33.1 °F 96% 29.72 in 2.5 mi NNE 19.6 mph - 0.08 in Snow Light Snow
6:49 PM 32.0 °F 20.8 °F 32.0 °F 100% 29.73 in 1.0 mi NNE 17.3 mph - 0.10 in Snow Light Snow
6:53 PM 32.0 °F 20.8 °F 32.0 °F 100% 29.78 in 0.8 mi NNE 17.3 mph - 0.11 in Snow Light Snow
7:01 PM 32.0 °F 20.8 °F 32.0 °F 100% 29.73 in 0.5 mi NNE 17.3 mph - 0.01 in Fog , Snow Snow
7:53 PM 32.0 °F 20.1 °F 32.0 °F 100% 29.80 in 0.8 mi NNE 19.6 mph - 0.08 in Snow Light Snow
8:09 PM 32.0 °F 20.1 °F 32.0 °F 100% 29.75 in 1.0 mi NNE 19.6 mph - 0.01 in Snow Light Snow
8:17 PM 32.0 °F 19.8 °F 32.0 °F 100% 29.76 in 0.8 mi NNE 20.7 mph - 0.02 in Snow Light Snow
8:24 PM 32.0 °F 19.8 °F 32.0 °F 100% 29.76 in 1.0 mi NNE 20.7 mph - 0.02 in Snow Light Snow
8:51 PM 32.0 °F 19.5 °F 32.0 °F 100% 29.77 in 0.8 mi NNE 21.9 mph - 0.03 in Snow Light Snow
8:53 PM 32.0 °F 19.5 °F 32.0 °F 100% 29.83 in 0.8 mi NNE 21.9 mph - 0.03 in Snow Light Snow
9:26 PM 32.0 °F 19.2 °F 32.0 °F 100% 29.78 in 1.0 mi NNE 23.0 mph - 0.01 in Snow Light Snow
9:40 PM 32.0 °F 19.5 °F 32.0 °F 100% 29.78 in 0.8 mi NNE 21.9 mph - 0.02 in Snow Light Snow
9:53 PM 32.0 °F 19.2 °F 32.0 °F 100% 29.83 in 0.5 mi NNE 23.0 mph - 0.03 in Fog , Snow Snow
10:53 PM 30.9 °F 17.5 °F 30.9 °F 100% 29.86 in 0.8 mi NNE 24.2 mph - 0.02 in Snow Light Snow
11:51 PM 30.2 °F 16.2 °F 30.2 °F 100% 29.83 in 0.8 mi North 25.3 mph - 0.01 in Snow Light Snow
11:53 PM 30.0 °F 16.3 °F 30.0 °F 100% 29.88 in 0.8 mi North 24.2 mph - 0.01 in Snow Light Snow